Location: Peebles
(55.6412°N, 3.1714°W)
Time: 02:34:57
(UTC+01:00)

FENGYUN 1C DEB - Pass Details

Date: 07 July 2022
Orbit: 580 x 1160 km, 99.3° (Epoch: 11 August)

Event Time Altitude Azimuth Distance (km) Brightness Sun altitude
Exits shadow 00:04:58 11° 143° (SE) 2,561 ? -10.2°
Maximum altitude 00:10:40 63° 64° (ENE) 1,135 ? -10.5°
Drops below altitude 10° 00:17:23 10° 346° (NNW) 2,987 ? -10.7°
Sets 00:20:07 0° 344° (NNW) 3,994 ? -10.8°
